Orbital Elements at Epoch 2459200.5 (2020-Dec-17.0) TDB
Reference: JPL 28 (heliocentric ecliptic J2000)
Element | Value | Uncertainty (1-sigma) | Units |
e | .1031172834647486 | 3.0616e-08 | |
a | 2.3522024086671 | 7.6862e-09 | au |
q | 2.10964968612611 | 7.2209e-08 | au |
i | 3.839334509455202 | 4.331e-06 | deg |
node | 118.4807941042264 | 5.2956e-05 | deg |
peri | 285.3513780508568 | 5.7667e-05 | deg |
M | 53.0308981239393 | 2.2622e-05 | deg |
tp | 2459006.394901075511 (2020-Jun-05.89490108) | 8.2552e-05 | TDB |
period | 1317.68154198527 3.61 | 6.4586e-06 1.768e-08 | d yr |
n | .2732071358134152 | 1.3391e-09 | deg/d |
Q | 2.59475513120809 | 8.4788e-09 | au |
|
| | Orbit Determination Parameters
Additional Information
|